Time,TemperatureF,DewpointF,PressureIn,WindDirection,WindDirectionDegrees,WindSpeedMPH,WindSpeedGustMPH,Humidity,HourlyPrecipIn,Conditions,Clouds,dailyrainin,SoftwareType,DateUTC
2013-02-19 00:02:00,32.8,-4.9,30.17,WSW,255,0.0,0.0,19,0.00,,,0.00,WeatherTracker,2013-02-19 07:02:00,
2013-02-19 00:07:00,32.5,-4.1,30.17,WSW,255,0.0,0.0,20,0.00,,,0.00,WeatherTracker,2013-02-19 07:07:00,
2013-02-19 00:12:00,32.5,-4.1,30.17,WSW,255,0.0,0.0,20,0.00,,,0.00,WeatherTracker,2013-02-19 07:12:00,
2013-02-19 00:17:00,32.6,-4.0,30.17,WSW,255,0.0,0.0,20,0.00,,,0.00,WeatherTracker,2013-02-19 07:17:00,
2013-02-19 00:22:00,32.6,-4.0,30.17,WSW,255,0.0,0.0,20,0.00,,,0.00,WeatherTracker,2013-02-19 07:22:00,
2013-02-19 00:27:00,32.4,-4.1,30.18,WSW,255,0.0,1.0,20,0.00,,,0.00,WeatherTracker,2013-02-19 07:27:00,
2013-02-19 00:32:00,32.0,-3.5,30.18,WSW,256,0.0,1.0,21,0.00,,,0.00,WeatherTracker,2013-02-19 07:32:00,
2013-02-19 00:37:00,32.0,-3.5,30.18,WSW,255,0.0,0.0,21,0.00,,,0.00,WeatherTracker,2013-02-19 07:37:00,
2013-02-19 00:42:00,31.4,-4.0,30.18,WSW,255,0.0,0.0,21,0.00,,,0.00,WeatherTracker,2013-02-19 07:42:00,
2013-02-19 00:47:00,31.1,-3.3,30.18,WSW,256,0.0,0.0,22,0.00,,,0.00,WeatherTracker,2013-02-19 07:47:00,
2013-02-19 00:52:00,30.9,-3.4,30.18,WSW,255,0.0,0.0,22,0.00,,,0.00,WeatherTracker,2013-02-19 07:52:00,
2013-02-19 00:57:00,31.2,-3.2,30.18,WSW,255,0.0,0.0,22,0.00,,,0.00,WeatherTracker,2013-02-19 07:57:00,
2013-02-19 01:02:00,31.3,-4.1,30.18,WSW,255,0.0,0.0,21,0.00,,,0.00,WeatherTracker,2013-02-19 08:02:00,
2013-02-19 01:07:00,31.6,-3.8,30.18,WSW,255,0.0,0.0,21,0.00,,,0.00,WeatherTracker,2013-02-19 08:07:00,
2013-02-19 01:12:00,31.9,-3.5,30.19,WSW,255,0.0,0.0,21,0.00,,,0.00,WeatherTracker,2013-02-19 08:12:00,
2013-02-19 01:17:00,32.2,-4.3,30.19,WSW,255,0.0,0.0,20,0.00,,,0.00,WeatherTracker,2013-02-19 08:17:00,
2013-02-19 01:22:00,32.4,-4.1,30.19,WSW,255,0.0,0.0,20,0.00,,,0.00,WeatherTracker,2013-02-19 08:22:00,
2013-02-19 01:27:00,32.3,-4.2,30.19,WSW,255,0.0,0.0,20,0.00,,,0.00,WeatherTracker,2013-02-19 08:27:00,
2013-02-19 01:32:00,31.9,-4.6,30.19,WSW,255,0.0,0.0,20,0.00,,,0.00,WeatherTracker,2013-02-19 08:32:00,
2013-02-19 01:37:00,31.7,-4.7,30.19,WSW,255,0.0,0.0,20,0.00,,,0.00,WeatherTracker,2013-02-19 08:37:00,
2013-02-19 01:42:00,31.8,-4.6,30.19,WSW,255,0.0,0.0,20,0.00,,,0.00,WeatherTracker,2013-02-19 08:42:00,
2013-02-19 01:48:00,31.7,-4.7,30.19,WSW,255,0.0,0.0,20,0.00,,,0.00,WeatherTracker,2013-02-19 08:48:00,
2013-02-19 01:53:00,31.3,-4.1,30.18,WSW,255,0.0,0.0,21,0.00,,,0.00,WeatherTracker,2013-02-19 08:53:00,
2013-02-19 01:58:00,30.7,-4.6,30.18,WSW,256,0.0,0.0,21,0.00,,,0.00,WeatherTracker,2013-02-19 08:58:00,
2013-02-19 02:03:00,30.8,-4.5,30.18,WSW,255,0.0,0.0,21,0.00,,,0.00,WeatherTracker,2013-02-19 09:03:00,
2013-02-19 02:08:00,30.8,-4.5,30.18,WSW,255,0.0,0.0,21,0.00,,,0.00,WeatherTracker,2013-02-19 09:08:00,
2013-02-19 02:13:00,30.9,-4.4,30.18,WSW,255,0.0,1.0,21,0.00,,,0.00,WeatherTracker,2013-02-19 09:13:00,
2013-02-19 02:18:00,31.0,-4.3,30.18,WSW,255,0.0,1.0,21,0.00,,,0.00,WeatherTracker,2013-02-19 09:18:00,
2013-02-19 02:23:00,31.0,-4.3,30.18,WSW,255,0.0,1.0,21,0.00,,,0.00,WeatherTracker,2013-02-19 09:23:00,
2013-02-19 02:28:00,30.7,-4.6,30.18,WSW,255,0.0,3.0,21,0.00,,,0.00,WeatherTracker,2013-02-19 09:28:00,
2013-02-19 02:33:00,31.1,-5.2,30.18,WSW,255,0.0,3.0,20,0.00,,,0.00,WeatherTracker,2013-02-19 09:33:00,
2013-02-19 02:38:00,31.2,-5.1,30.18,WSW,254,0.0,4.0,20,0.00,,,0.00,WeatherTracker,2013-02-19 09:38:00,
2013-02-19 02:43:00,31.2,-6.2,30.18,WSW,254,0.0,4.0,19,0.00,,,0.00,WeatherTracker,2013-02-19 09:43:00,
2013-02-19 02:48:00,31.1,-6.3,30.18,WSW,255,0.0,3.0,19,0.00,,,0.00,WeatherTracker,2013-02-19 09:48:00,
2013-02-19 02:53:00,31.0,-5.3,30.17,WSW,244,0.0,3.0,20,0.00,,,0.00,WeatherTracker,2013-02-19 09:53:00,
2013-02-19 02:58:00,30.8,-5.5,30.17,WSW,244,0.0,2.0,20,0.00,,,0.00,WeatherTracker,2013-02-19 09:58:00,
2013-02-19 03:03:00,30.8,-5.5,30.17,SW,233,0.0,2.0,20,0.00,,,0.00,WeatherTracker,2013-02-19 10:03:00,
2013-02-19 03:08:00,30.7,-5.6,30.17,SW,233,0.0,2.0,20,0.00,,,0.00,WeatherTracker,2013-02-19 10:08:00,
2013-02-19 03:13:00,30.7,-5.6,30.17,SW,233,0.0,2.0,20,0.00,,,0.00,WeatherTracker,2013-02-19 10:13:00,
2013-02-19 03:18:00,30.7,-5.6,30.17,SW,236,0.0,3.0,20,0.00,,,0.00,WeatherTracker,2013-02-19 10:18:00,
2013-02-19 03:24:00,30.7,-5.6,30.17,SW,236,0.0,3.0,20,0.00,,,0.00,WeatherTracker,2013-02-19 10:24:00,
2013-02-19 03:29:00,30.5,-4.7,30.17,WSW,248,0.0,4.0,21,0.00,,,0.00,WeatherTracker,2013-02-19 10:29:00,
2013-02-19 03:34:00,30.4,-4.8,30.17,WSW,248,0.0,4.0,21,0.00,,,0.00,WeatherTracker,2013-02-19 10:34:00,
2013-02-19 03:39:00,29.9,-5.2,30.17,WSW,248,0.0,3.0,21,0.00,,,0.00,WeatherTracker,2013-02-19 10:39:00,
2013-02-19 03:44:00,29.8,-4.3,30.17,West,264,0.0,3.0,22,0.00,,,0.00,WeatherTracker,2013-02-19 10:44:00,
2013-02-19 03:49:00,29.6,-4.5,30.17,West,264,0.0,2.0,22,0.00,,,0.00,WeatherTracker,2013-02-19 10:49:00,
2013-02-19 03:54:00,29.4,-4.7,30.17,West,263,0.0,1.0,22,0.00,,,0.00,WeatherTracker,2013-02-19 10:54:00,
2013-02-19 03:59:00,29.5,-4.6,30.17,WSW,257,0.0,2.0,22,0.00,,,0.00,WeatherTracker,2013-02-19 10:59:00,
2013-02-19 04:04:00,29.4,-4.7,30.17,WSW,258,0.0,2.0,22,0.00,,,0.00,WeatherTracker,2013-02-19 11:04:00,
2013-02-19 04:09:00,29.4,-3.8,30.17,West,275,0.0,2.0,23,0.00,,,0.00,WeatherTracker,2013-02-19 11:09:00,
2013-02-19 04:14:00,29.1,-4.0,30.17,West,275,0.0,2.0,23,0.00,,,0.00,WeatherTracker,2013-02-19 11:14:00,
2013-02-19 04:19:00,29.1,-4.0,30.16,WSW,242,0.0,2.0,23,0.00,,,0.00,WeatherTracker,2013-02-19 11:19:00,
2013-02-19 04:24:00,29.4,-3.8,30.16,WSW,244,1.0,3.0,23,0.00,,,0.00,WeatherTracker,2013-02-19 11:24:00,
2013-02-19 04:29:00,29.4,-3.8,30.16,WSW,247,1.0,3.0,23,0.00,,,0.00,WeatherTracker,2013-02-19 11:29:00,
2013-02-19 04:34:00,29.3,-3.9,30.16,SW,225,0.0,3.0,23,0.00,,,0.00,WeatherTracker,2013-02-19 11:34:00,
2013-02-19 04:39:00,29.3,-3.9,30.17,WSW,249,2.0,3.0,23,0.00,,,0.00,WeatherTracker,2013-02-19 11:39:00,
2013-02-19 04:44:00,29.4,-3.8,30.16,WSW,255,0.0,3.0,23,0.00,,,0.00,WeatherTracker,2013-02-19 11:44:00,
2013-02-19 04:49:00,29.4,-3.8,30.16,SW,233,0.0,3.0,23,0.00,,,0.00,WeatherTracker,2013-02-19 11:49:00,
2013-02-19 04:54:00,29.3,-3.9,30.16,WSW,240,0.0,3.0,23,0.00,,,0.00,WeatherTracker,2013-02-19 11:54:00,
2013-02-19 04:59:00,29.2,-3.0,30.16,WSW,248,1.0,4.0,24,0.00,,,0.00,WeatherTracker,2013-02-19 11:59:00,
2013-02-19 05:04:00,28.9,-3.3,30.16,SW,215,0.0,4.0,24,0.00,,,0.00,WeatherTracker,2013-02-19 12:04:00,
2013-02-19 05:09:00,28.7,-3.5,30.16,West,273,0.0,4.0,24,0.00,,,0.00,WeatherTracker,2013-02-19 12:09:00,
2013-02-19 05:14:00,28.3,-3.8,30.16,West,269,0.0,3.0,24,0.00,,,0.00,WeatherTracker,2013-02-19 12:14:00,
2013-02-19 05:19:00,28.0,-4.1,30.16,West,269,0.0,2.0,24,0.00,,,0.00,WeatherTracker,2013-02-19 12:19:00,
2013-02-19 05:24:00,27.7,-3.5,30.17,West,269,0.0,1.0,25,0.00,,,0.00,WeatherTracker,2013-02-19 12:24:00,
2013-02-19 05:29:00,27.5,-3.7,30.17,West,269,0.0,0.0,25,0.00,,,0.00,WeatherTracker,2013-02-19 12:29:00,
2013-02-19 05:34:00,27.4,-3.7,30.17,West,269,0.0,2.0,25,0.00,,,0.00,WeatherTracker,2013-02-19 12:34:00,
2013-02-19 05:39:00,27.2,-3.9,30.17,West,269,0.0,2.0,25,0.00,,,0.00,WeatherTracker,2013-02-19 12:39:00,
2013-02-19 05:45:00,27.1,-4.0,30.17,West,269,0.0,1.0,25,0.00,,,0.00,WeatherTracker,2013-02-19 12:45:00,
2013-02-19 05:50:00,27.0,-4.1,30.16,West,269,0.0,1.0,25,0.00,,,0.00,WeatherTracker,2013-02-19 12:50:00,
2013-02-19 05:55:00,27.0,-4.1,30.16,West,269,0.0,1.0,25,0.00,,,0.00,WeatherTracker,2013-02-19 12:55:00,
2013-02-19 06:00:00,26.9,-3.4,30.16,West,269,0.0,2.0,26,0.00,,,0.00,WeatherTracker,2013-02-19 13:00:00,
2013-02-19 06:05:00,26.9,-3.4,30.17,West,269,0.0,2.0,26,0.00,,,0.00,WeatherTracker,2013-02-19 13:05:00,
2013-02-19 06:10:00,26.6,-3.6,30.17,West,269,0.0,1.0,26,0.00,,,0.00,WeatherTracker,2013-02-19 13:10:00,
2013-02-19 06:15:00,26.3,-3.9,30.17,West,269,0.0,1.0,26,0.00,,,0.00,WeatherTracker,2013-02-19 13:15:00,
2013-02-19 06:20:00,26.3,-3.1,30.17,West,269,0.0,1.0,27,0.00,,,0.00,WeatherTracker,2013-02-19 13:20:00,
2013-02-19 06:25:00,26.2,-3.2,30.18,West,269,0.0,1.0,27,0.00,,,0.00,WeatherTracker,2013-02-19 13:25:00,
2013-02-19 06:30:00,26.1,-2.5,30.18,West,269,0.0,1.0,28,0.00,,,0.00,WeatherTracker,2013-02-19 13:30:00,
2013-02-19 06:35:00,26.1,-2.5,30.18,West,269,0.0,1.0,28,0.00,,,0.00,WeatherTracker,2013-02-19 13:35:00,
2013-02-19 06:40:00,26.1,-2.5,30.18,West,269,0.0,1.0,28,0.00,,,0.00,WeatherTracker,2013-02-19 13:40:00,
2013-02-19 06:45:00,26.1,-2.5,30.18,West,269,0.0,1.0,28,0.00,,,0.00,WeatherTracker,2013-02-19 13:45:00,
2013-02-19 06:50:00,26.1,-2.5,30.18,West,269,0.0,1.0,28,0.00,,,0.00,WeatherTracker,2013-02-19 13:50:00,
2013-02-19 06:55:00,26.0,-2.6,30.18,West,269,0.0,0.0,28,0.00,,,0.00,WeatherTracker,2013-02-19 13:55:00,
2013-02-19 07:00:00,26.1,-2.5,30.18,West,266,0.0,2.0,28,0.00,,,0.00,WeatherTracker,2013-02-19 14:00:00,
2013-02-19 07:05:00,26.2,-3.2,30.18,SW,216,0.0,3.0,27,0.00,,,0.00,WeatherTracker,2013-02-19 14:05:00,
2013-02-19 07:10:00,26.4,-3.0,30.18,SW,216,0.0,3.0,27,0.00,,,0.00,WeatherTracker,2013-02-19 14:10:00,
2013-02-19 07:15:00,26.9,-2.6,30.18,SW,216,0.0,0.0,27,0.00,,,0.00,WeatherTracker,2013-02-19 14:15:00,
2013-02-19 07:21:00,27.4,-2.9,30.18,SSW,210,1.0,2.0,26,0.00,,,0.00,WeatherTracker,2013-02-19 14:21:00,
2013-02-19 07:26:00,27.9,-2.5,30.18,SSW,210,0.0,2.0,26,0.00,,,0.00,WeatherTracker,2013-02-19 14:26:00,
2013-02-19 07:31:00,28.4,-2.9,30.18,SW,215,0.0,3.0,25,0.00,,,0.00,WeatherTracker,2013-02-19 14:31:00,
2013-02-19 07:36:00,28.8,-3.4,30.18,WSW,242,1.0,3.0,24,0.00,,,0.00,WeatherTracker,2013-02-19 14:36:00,
2013-02-19 07:41:00,29.7,-2.6,30.18,WSW,250,0.0,3.0,24,0.00,,,0.00,WeatherTracker,2013-02-19 14:41:00,
2013-02-19 07:46:00,30.4,-2.0,30.18,WSW,258,1.0,4.0,24,0.00,,,0.00,WeatherTracker,2013-02-19 14:46:00,
2013-02-19 07:51:00,31.0,-2.4,30.18,North,350,1.0,4.0,23,0.00,,,0.00,WeatherTracker,2013-02-19 14:51:00,
2013-02-19 07:56:00,30.9,-2.5,30.18,WSW,239,0.0,3.0,23,0.00,,,0.00,WeatherTracker,2013-02-19 14:56:00,
2013-02-19 08:01:00,30.6,-2.7,30.19,WSW,239,1.0,3.0,23,0.00,,,0.00,WeatherTracker,2013-02-19 15:01:00,
2013-02-19 08:06:00,30.4,-2.0,30.20,WSW,240,0.0,1.0,24,0.00,,,0.00,WeatherTracker,2013-02-19 15:06:00,
2013-02-19 08:11:00,30.5,-1.9,30.20,WSW,240,0.0,1.0,24,0.00,,,0.00,WeatherTracker,2013-02-19 15:11:00,
2013-02-19 08:16:00,30.7,-1.8,30.19,WSW,240,0.0,1.0,24,0.00,,,0.00,WeatherTracker,2013-02-19 15:16:00,
2013-02-19 08:21:00,31.7,-1.8,30.19,South,185,0.0,3.0,23,0.00,,,0.00,WeatherTracker,2013-02-19 15:21:00,
2013-02-19 08:26:00,32.5,-2.1,30.19,WSW,243,0.0,3.0,22,0.00,,,0.00,WeatherTracker,2013-02-19 15:26:00,
2013-02-19 08:31:00,32.1,-2.4,30.18,WNW,302,0.0,2.0,22,0.00,,,0.00,WeatherTracker,2013-02-19 15:31:00,
2013-02-19 08:36:00,32.0,-1.6,30.18,West,277,0.0,2.0,23,0.00,,,0.00,WeatherTracker,2013-02-19 15:36:00,
2013-02-19 08:42:00,33.2,-1.5,30.19,WNW,291,0.0,3.0,22,0.00,,,0.00,WeatherTracker,2013-02-19 15:42:00,
2013-02-19 08:47:00,33.8,-1.0,30.19,West,264,0.0,3.0,22,0.00,,,0.00,WeatherTracker,2013-02-19 15:47:00,
2013-02-19 08:52:00,34.0,-1.8,30.19,WSW,248,0.0,2.0,21,0.00,,,0.00,WeatherTracker,2013-02-19 15:52:00,
2013-02-19 08:57:00,34.7,-1.2,30.18,WSW,244,0.0,1.0,21,0.00,,,0.00,WeatherTracker,2013-02-19 15:57:00,
2013-02-19 09:02:00,35.6,-1.5,30.18,South,189,0.0,3.0,20,0.00,,,0.00,WeatherTracker,2013-02-19 16:02:00,
2013-02-19 09:07:00,36.5,-0.7,30.18,SSE,150,1.0,3.0,20,0.00,,,0.00,WeatherTracker,2013-02-19 16:07:00,
2013-02-19 09:12:00,37.4,0.0,30.19,SSE,150,0.0,3.0,20,0.00,,,0.00,WeatherTracker,2013-02-19 16:12:00,
2013-02-19 09:17:00,37.8,-0.7,30.18,SSE,150,0.0,1.0,19,0.00,,,0.00,WeatherTracker,2013-02-19 16:17:00,
2013-02-19 09:22:00,38.0,-0.5,30.19,SSE,148,2.0,3.0,19,0.00,,,0.00,WeatherTracker,2013-02-19 16:22:00,
2013-02-19 09:27:00,37.7,0.3,30.18,NNW,346,0.0,3.0,20,0.00,,,0.00,WeatherTracker,2013-02-19 16:27:00,
2013-02-19 09:32:00,38.0,-0.5,30.18,WSW,252,1.0,5.0,19,0.00,,,0.00,WeatherTracker,2013-02-19 16:32:00,